{"data":{"norad_id":62930,"epoch":"2026-05-25T03:11:42.431136Z","epoch_age_seconds":66780,"freshness":"FRESH","line1":"1 62930U 25028C   26145.13312999  .00001361  00000+0  20681-3 0  9992","line2":"2 62930  97.9298 198.0232 0001617 281.8813  78.2215 14.75598202 69314","mean_motion":14.75598202,"eccentricity":0.0001617,"inclination_deg":97.9298,"raan_deg":198.0232,"arg_perigee_deg":281.8813,"mean_anomaly_deg":78.2215,"bstar":0.00020681,"rev_number":6931,"period_min":97.587540974789,"perigee_km":642.1176413788,"apogee_km":644.38835890485,"semimajor_km":7021.3900001418,"source":"CELESTRAK","updated_at":"2026-05-25T13:38:03.363297Z"}}